Powrót do katalogu

STARLINK-11528

AktywnyŁącznośćVLEO
NORAD 62521·PAYLOAD·🇺🇸 United States

Wystrzelony Jan 8, 2025 z Cape Canaveral Space Force Station

Loading…

Następne Przeloty (najbliższe 24 godziny)

TLE

ŚwieżeSource: CelesTrak SupGP

Epoka: Sep 14, 2026, 22:58 UTC

1 62521C 25004L   26257.95743056 -.00041543  00000+0 -32248-3 0  2575
2 62521  43.0010  10.2221 0001875 267.0027  19.9257 15.70871518    16

Śledź STARLINK-11528 w czasie rzeczywistym z AllMySat

Download on the App Store